• în România
  • Lista ţărilor
  • Pe 7 zile
  • Temperatura apei
  • Hartă satelitară
  • Meteo pe hartă
  • Widget-uri
  • user-avatar
    Intrare

    Meteo pe oră la Wiktoria

    Astăzi, 20 Februarie, Marţi

    Timp Temperatura Precipitaţii Vânt Presiune Umiditate
    00:00 +21°C° 0 mm 3 m/s 750 mmHg 61%
    01:00 +20°C° 0 mm 3 m/s 750 mmHg 63%
    02:00 +19°C° 0 mm 3 m/s 750 mmHg 66%
    03:00 +18°C° 0 mm 3 m/s 750 mmHg 68%
    04:00 +18°C° 0 mm 3 m/s 750 mmHg 71%
    05:00 +18°C° 0 mm 3 m/s 751 mmHg 70%
    06:00 +18°C° 0 mm 3 m/s 751 mmHg 70%
    07:00 +18°C° 0 mm 3 m/s 751 mmHg 69%
    08:00 +21°C° 0 mm 3 m/s 751 mmHg 59%
    09:00 +24°C° 0 mm 3 m/s 751 mmHg 49%
    10:00 +27°C° 0 mm 2 m/s 751 mmHg 39%
    11:00 +29°C° 0 mm 2 m/s 751 mmHg 36%
    12:00 +30°C° 0 mm 2 m/s 750 mmHg 32%
    13:00 +32°C° 0 mm 1 m/s 750 mmHg 29%
    14:00 +33°C° 0 mm 1 m/s 749 mmHg 27%
    15:00 +34°C° 0 mm 2 m/s 748 mmHg 25%
    16:00 +34°C° 0 mm 2 m/s 748 mmHg 23%
    17:00 +32°C° 0 mm 2 m/s 748 mmHg 25%
    18:00 +30°C° 0 mm 2 m/s 748 mmHg 28%
    19:00 +29°C° 0 mm 2 m/s 748 mmHg 31%
    20:00 +27°C° 0 mm 2 m/s 749 mmHg 34%
    21:00 +26°C° 0 mm 2 m/s 749 mmHg 38%
    22:00 +25°C° 0 mm 2 m/s 749 mmHg 41%
    23:00 +24°C° 0 mm 3 m/s 749 mmHg 44%

    Mâine, 21 Februarie, Miercuri

    Timp Temperatura Precipitaţii Vânt Presiune Umiditate
    00:00 +22°C° 0 mm 4 m/s 749 mmHg 46%
    01:00 +21°C° 0 mm 4 m/s 750 mmHg 48%
    02:00 +21°C° 0 mm 4 m/s 750 mmHg 50%
    03:00 +20°C° 0 mm 4 m/s 750 mmHg 53%
    04:00 +19°C° 0 mm 4 m/s 750 mmHg 55%
    05:00 +19°C° 0 mm 4 m/s 750 mmHg 56%
    06:00 +19°C° 0 mm 4 m/s 750 mmHg 57%
    07:00 +19°C° 0 mm 4 m/s 751 mmHg 57%
    08:00 +21°C° 0 mm 4 m/s 751 mmHg 52%
    09:00 +23°C° 0 mm 4 m/s 751 mmHg 46%
    10:00 +26°C° 0 mm 4 m/s 750 mmHg 40%
    11:00 +27°C° 0 mm 4 m/s 750 mmHg 36%
    12:00 +29°C° 0 mm 4 m/s 750 mmHg 32%
    13:00 +30°C° 0 mm 3 m/s 749 mmHg 28%
    14:00 +31°C° 0 mm 3 m/s 748 mmHg 27%
    15:00 +31°C° 0 mm 2 m/s 748 mmHg 26%
    16:00 +31°C° 0 mm 2 m/s 747 mmHg 25%
    17:00 +30°C° 0 mm 2 m/s 747 mmHg 27%
    18:00 +29°C° 0 mm 1 m/s 748 mmHg 29%
    19:00 +28°C° 0 mm 1 m/s 748 mmHg 31%
    20:00 +27°C° 0 mm 1 m/s 748 mmHg 32%
    21:00 +27°C° 0 mm 2 m/s 748 mmHg 33%
    22:00 +26°C° 0 mm 2 m/s 748 mmHg 34%
    23:00 +26°C° 0 mm 2 m/s 748 mmHg 35%

    Poimâine, 22 Februarie, Joi

    Timp Temperatura Precipitaţii Vânt Presiune Umiditate
    00:00 +25°C° 0 mm 2 m/s 748 mmHg 36%
    01:00 +25°C° 0 mm 2 m/s 748 mmHg 36%
    02:00 +25°C° 0 mm 2 m/s 748 mmHg 37%
    03:00 +24°C° 0 mm 3 m/s 747 mmHg 38%
    04:00 +24°C° 0 mm 3 m/s 747 mmHg 39%
    05:00 +24°C° 0 mm 3 m/s 748 mmHg 41%
    06:00 +24°C° 0 mm 3 m/s 748 mmHg 43%
    07:00 +23°C° 0 mm 4 m/s 749 mmHg 45%
    08:00 +25°C° 0 mm 4 m/s 749 mmHg 44%
    09:00 +26°C° 0 mm 4 m/s 749 mmHg 43%
    10:00 +27°C° 0 mm 4 m/s 749 mmHg 42%
    11:00 +27°C° 0,1 mm 3 m/s 749 mmHg 42%
    12:00 +28°C° 0,1 mm 3 m/s 748 mmHg 41%
    13:00 +28°C° 0,1 mm 3 m/s 748 mmHg 40%
    14:00 +28°C° 0 mm 2 m/s 748 mmHg 40%
    15:00 +28°C° 0 mm 2 m/s 747 mmHg 40%
    16:00 +28°C° 0 mm 2 m/s 747 mmHg 40%
    17:00 +28°C° 0 mm 1 m/s 747 mmHg 40%
    18:00 +27°C° 0 mm 1 m/s 747 mmHg 41%
    19:00 +27°C° 0 mm 1 m/s 747 mmHg 42%
    20:00 +26°C° 0 mm 1 m/s 748 mmHg 42%
    21:00 +26°C° 0 mm 2 m/s 748 mmHg 43%
    22:00 +26°C° 0 mm 2 m/s 748 mmHg 44%
    23:00 +25°C° 0 mm 2 m/s 747 mmHg 46%

    23 Februarie, Vineri

    Timp Temperatura Precipitaţii Vânt Presiune Umiditate
    00:00 +25°C° 0 mm 2 m/s 747 mmHg 48%
    01:00 +25°C° 0 mm 2 m/s 747 mmHg 50%
    02:00 +25°C° 0,1 mm 2 m/s 746 mmHg 53%
    03:00 +24°C° 0,1 mm 2 m/s 746 mmHg 55%
    04:00 +24°C° 0,1 mm 2 m/s 746 mmHg 58%
    05:00 +24°C° 0,1 mm 3 m/s 746 mmHg 56%
    06:00 +24°C° 0,1 mm 3 m/s 746 mmHg 55%
    07:00 +23°C° 0,1 mm 4 m/s 746 mmHg 53%
    08:00 +25°C° 0,2 mm 5 m/s 746 mmHg 49%
    09:00 +26°C° 0,2 mm 6 m/s 747 mmHg 45%
    10:00 +27°C° 0,2 mm 7 m/s 747 mmHg 41%
    11:00 +29°C° 0 mm 7 m/s 746 mmHg 39%
    12:00 +32°C° 0 mm 8 m/s 745 mmHg 36%
    13:00 +33°C° 0 mm 8 m/s 745 mmHg 33%
    14:00 +34°C° 0 mm 8 m/s 744 mmHg 32%
    15:00 +34°C° 0 mm 8 m/s 743 mmHg 30%
    16:00 +35°C° 0 mm 8 m/s 743 mmHg 29%
    17:00 +34°C° 0 mm 8 m/s 743 mmHg 30%
    18:00 +33°C° 0 mm 7 m/s 742 mmHg 32%
    19:00 +30°C° 0 mm 6 m/s 742 mmHg 34%
    20:00 +30°C° 0,1 mm 6 m/s 742 mmHg 37%
    21:00 +29°C° 0,1 mm 6 m/s 742 mmHg 40%
    22:00 +28°C° 0,1 mm 6 m/s 742 mmHg 42%
    23:00 +27°C° 0,1 mm 6 m/s 742 mmHg 47%

    24 Februarie, Sâmbătă

    Timp Temperatura Precipitaţii Vânt Presiune Umiditate
    00:00 +27°C° 0,1 mm 6 m/s 742 mmHg 51%
    01:00 +26°C° 0,1 mm 5 m/s 742 mmHg 55%
    02:00 +26°C° 0 mm 5 m/s 742 mmHg 60%
    03:00 +25°C° 0 mm 4 m/s 742 mmHg 64%
    04:00 +24°C° 0 mm 3 m/s 742 mmHg 69%
    05:00 +23°C° 0 mm 4 m/s 742 mmHg 71%
    06:00 +23°C° 0 mm 4 m/s 743 mmHg 73%
    07:00 +22°C° 0 mm 4 m/s 743 mmHg 75%
    08:00 +25°C° 0 mm 4 m/s 743 mmHg 68%
    09:00 +26°C° 0 mm 4 m/s 744 mmHg 60%
    10:00 +27°C° 0 mm 4 m/s 744 mmHg 53%
    11:00 +28°C° 0 mm 5 m/s 743 mmHg 47%
    12:00 +29°C° 0 mm 5 m/s 743 mmHg 41%
    13:00 +30°C° 0 mm 6 m/s 743 mmHg 36%
    14:00 +30°C° 0 mm 6 m/s 742 mmHg 33%
    15:00 +30°C° 0 mm 7 m/s 742 mmHg 31%
    16:00 +30°C° 0 mm 7 m/s 742 mmHg 28%
    17:00 +29°C° 0 mm 7 m/s 743 mmHg 33%
    18:00 +27°C° 0 mm 7 m/s 743 mmHg 37%
    19:00 +24°C° 0 mm 7 m/s 744 mmHg 42%
    20:00 +22°C° 0 mm 7 m/s 745 mmHg 44%
    21:00 +20°C° 0 mm 8 m/s 746 mmHg 47%
    22:00 +17°C° 0 mm 8 m/s 747 mmHg 49%
    23:00 +15°C° 0 mm 7 m/s 748 mmHg 50%

    25 Februarie, Duminică

    Timp Temperatura Precipitaţii Vânt Presiune Umiditate
    00:00 +14°C° 0 mm 6 m/s 748 mmHg 51%
    01:00 +13°C° 0 mm 5 m/s 749 mmHg 52%
    02:00 +12°C° 0 mm 5 m/s 749 mmHg 56%
    03:00 +12°C° 0 mm 4 m/s 749 mmHg 59%
    04:00 +12°C° 0 mm 4 m/s 749 mmHg 63%
    05:00 +12°C° 0 mm 4 m/s 750 mmHg 63%
    06:00 +12°C° 0 mm 4 m/s 751 mmHg 62%
    07:00 +12°C° 0 mm 4 m/s 751 mmHg 62%
    08:00 +14°C° 0 mm 5 m/s 751 mmHg 56%
    09:00 +16°C° 0 mm 5 m/s 752 mmHg 49%
    10:00 +17°C° 0 mm 6 m/s 752 mmHg 42%
    11:00 +19°C° 0 mm 6 m/s 751 mmHg 39%
    12:00 +20°C° 0 mm 6 m/s 751 mmHg 36%
    13:00 +21°C° 0 mm 6 m/s 751 mmHg 33%
    14:00 +22°C° 0 mm 7 m/s 750 mmHg 33%
    15:00 +22°C° 0 mm 7 m/s 750 mmHg 32%
    16:00 +22°C° 0 mm 7 m/s 750 mmHg 31%
    17:00 +21°C° 0 mm 6 m/s 750 mmHg 35%
    18:00 +19°C° 0 mm 6 m/s 751 mmHg 39%
    19:00 +17°C° 0 mm 6 m/s 751 mmHg 43%
    20:00 +16°C° 0 mm 6 m/s 751 mmHg 48%
    21:00 +14°C° 0 mm 5 m/s 752 mmHg 52%
    22:00 +13°C° 0 mm 5 m/s 752 mmHg 57%
    23:00 +13°C° 0 mm 5 m/s 752 mmHg 59%
    Arată mai mult